User: anonymous   Login
Location: Caltech
(34.1382°N, 118.1253°W)
Time: 13:53:19
(UTC-07:00)
Language:

UOSAT-12 - Orbit

View from above orbital plane
View from above orbital plane
View from above satellite
View from above satellite

Ground track
Ground track

The orbit data is extracted from the following two-line orbital elements,

1 25693U 99021A   17177.23814292 -.00000067 +00000-0 +10384-4 0  9994
2 25693 064.5564 097.7885 0035648 309.7792 050.0175 14.80739766981236
Epoch (UTC): 26 June 2017 05:42:55
Eccentricity: 0.0035648
inclination: 64.5564°
perigee height: 602 km
apogee height: 652 km
right ascension of ascending node: 97.7885°
argument of perigee: 309.7792°
revolutions per day: 14.80739766
mean anomaly at epoch: 50.0175°
orbit number at epoch: 98123

The dashed part of the orbit path shows where the satellite is in the earth's shadow,  

DLR